DO-64
1 32789U 08021G 11103.68054787 .00002977 00000-0 37340-3 0 09671
2 32789 097.8612 169.7756 0015781 029.8374 330.3755 14.82853305160024
CO-66
1 32791U 08021J 11104.69679493 .00001637 00000-0 21243-3 0 9524
2 32791 097.8522 169.6432 0016723 025.4475 334.7542 14.82013370160109
RS-30
1 32953U 08025A 11104.72223495 .00000010 00000-0 00000 0 0 6388
2 32953 082.5036 202.1696 0019558 161.8554 198.3233 12.43011841131203
TACSAT-3
1 35001U 09028A 11104.71038190 .00024461 00000-0 47248-3 0 5647
2 35001 040.4533 197.7086 0021694 096.1076 264.2213 15.46925415107245
PHARMSAT
1 35002U 09028B 11104.66674037 .00021058 00000-0 40818-3 0 5249
2 35002 040.4685 195.4868 0023684 102.8310 257.5155 15.46836471107269
HAWKSAT1
1 35003U 09028C 11104.53928163 .00075087 00000-0 96212-3 0 5822
2 35003 040.4555 175.6754 0021561 126.3909 233.8904 15.57881305107477
CP6
1 35004U 09028D 11104.51829705 .00094308 00000-0 10466-2 0 5860
2 35004 040.4562 170.0708 0020695 130.6236 229.6397 15.61571238107523
METEOR-M
1 35865U 09049A 11104.74676945 .00000176 00000-0 10000-3 0 2793
2 35865 098.7127 160.6783 0001790 201.4398 158.6656 14.21836620 81579
RS-38
1 35869U 09049E 11104.75453358 .00000177 00000-0 10000-3 0 2857
2 35869 098.7102 160.7255 0004187 206.7004 153.3942 14.22006403 81586
